When you browse on this site, cookies collect data to enhance your experience and personalize the content and advertising you see.
Visit our Privacy Policy to learn more. By continuing to use the site, you agree to this use of cookies and data.
  • In Österreich
  • Länderverzeichnis
  • Für 7 Tage
  • Wassertemperatur
  • Satellitenkarten
  • Wetterkarte
  • News
  • Widgets
  • user-avatar
    Anmelden

    Stündliche Wetter Mbandaka

    Heute, 18 November, Sonntag

    Zeit Temperatur Niederschläge Wind Luftdruck Luftfeuchtigkeit
    00:00 +23°C° 0.3 mm 0 m/S 731 mmHg 87%
    01:00 +22°C° 0 mm 0 m/S 731 mmHg 88%
    02:00 +22°C° 0.2 mm 0 m/S 731 mmHg 90%
    03:00 +22°C° 0.2 mm 0 m/S 731 mmHg 91%
    04:00 +22°C° 0.2 mm 0 m/S 731 mmHg 93%
    05:00 +23°C° 0.1 mm 0 m/S 731 mmHg 91%
    06:00 +23°C° 0.1 mm 0 m/S 731 mmHg 89%
    07:00 +24°C° 0 mm 0 m/S 732 mmHg 86%
    08:00 +27°C° 0.3 mm 0 m/S 732 mmHg 75%
    09:00 +30°C° 0.3 mm 0 m/S 732 mmHg 64%
    10:00 +32°C° 0.3 mm 0 m/S 732 mmHg 54%
    11:00 +35°C° 0.1 mm 1 m/S 731 mmHg 50%
    12:00 +35°C° 0.1 mm 1 m/S 731 mmHg 46%
    13:00 +35°C° 0 mm 1 m/S 730 mmHg 43%
    14:00 +35°C° 0 mm 1 m/S 730 mmHg 46%
    15:00 +34°C° 0 mm 1 m/S 730 mmHg 48%
    16:00 +34°C° 0 mm 1 m/S 729 mmHg 51%
    17:00 +32°C° 0 mm 1 m/S 730 mmHg 58%
    18:00 +30°C° 0 mm 1 m/S 730 mmHg 65%
    19:00 +28°C° 0 mm 1 m/S 730 mmHg 72%
    20:00 +27°C° 0 mm 1 m/S 730 mmHg 73%
    21:00 +25°C° 0 mm 0 m/S 731 mmHg 74%
    22:00 +25°C° 0 mm 0 m/S 731 mmHg 75%
    23:00 +25°C° 0 mm 0 m/S 731 mmHg 75%

    Morgen, 19 November, Montag

    Zeit Temperatur Niederschläge Wind Luftdruck Luftfeuchtigkeit
    00:00 +24°C° 0 mm 0 m/S 731 mmHg 75%
    01:00 +24°C° 0 mm 0 m/S 731 mmHg 75%
    02:00 +24°C° 0 mm 0 m/S 730 mmHg 75%
    03:00 +24°C° 0 mm 0 m/S 730 mmHg 76%
    04:00 +23°C° 0 mm 0 m/S 730 mmHg 76%
    05:00 +24°C° 0 mm 0 m/S 730 mmHg 74%
    06:00 +25°C° 0 mm 0 m/S 731 mmHg 71%
    07:00 +26°C° 0 mm 0 m/S 731 mmHg 69%
    08:00 +29°C° 0 mm 0 m/S 731 mmHg 59%
    09:00 +34°C° 0 mm 1 m/S 732 mmHg 50%
    10:00 +37°C° 0 mm 1 m/S 732 mmHg 40%
    11:00 +37°C° 0 mm 1 m/S 731 mmHg 37%
    12:00 +39°C° 0 mm 1 m/S 730 mmHg 34%
    13:00 +39°C° 0 mm 1 m/S 729 mmHg 30%
    14:00 +37°C° 0 mm 1 m/S 729 mmHg 35%
    15:00 +36°C° 0 mm 1 m/S 728 mmHg 40%
    16:00 +34°C° 0 mm 1 m/S 727 mmHg 45%
    17:00 +31°C° 0 mm 0 m/S 728 mmHg 49%
    18:00 +29°C° 0 mm 0 m/S 728 mmHg 53%
    19:00 +28°C° 0 mm 0 m/S 729 mmHg 57%
    20:00 +27°C° 0 mm 0 m/S 729 mmHg 59%
    21:00 +27°C° 0 mm 0 m/S 730 mmHg 61%
    22:00 +26°C° 0 mm 0 m/S 730 mmHg 63%
    23:00 +26°C° 0 mm 0 m/S 730 mmHg 65%

    übermorgen, 20 November, Dienstag

    Zeit Temperatur Niederschläge Wind Luftdruck Luftfeuchtigkeit
    00:00 +26°C° 0 mm 0 m/S 730 mmHg 67%
    01:00 +25°C° 0 mm 0 m/S 730 mmHg 69%
    02:00 +25°C° 0 mm 0 m/S 729 mmHg 71%
    03:00 +24°C° 0 mm 0 m/S 729 mmHg 73%
    04:00 +24°C° 0 mm 0 m/S 729 mmHg 76%
    05:00 +25°C° 0 mm 0 m/S 730 mmHg 73%
    06:00 +26°C° 0 mm 0 m/S 730 mmHg 71%
    07:00 +27°C° 0 mm 0 m/S 731 mmHg 69%
    08:00 +31°C° 0 mm 1 m/S 731 mmHg 60%
    09:00 +34°C° 0 mm 1 m/S 731 mmHg 52%
    10:00 +36°C° 0 mm 1 m/S 732 mmHg 43%
    11:00 +37°C° 0 mm 1 m/S 731 mmHg 40%
    12:00 +39°C° 0 mm 1 m/S 730 mmHg 37%
    13:00 +38°C° 0 mm 0 m/S 729 mmHg 34%
    14:00 +36°C° 0 mm 0 m/S 728 mmHg 39%
    15:00 +34°C° 0 mm 0 m/S 728 mmHg 43%
    16:00 +32°C° 0 mm 0 m/S 727 mmHg 48%
    17:00 +31°C° 0 mm 0 m/S 728 mmHg 50%
    18:00 +30°C° 0 mm 0 m/S 728 mmHg 53%
    19:00 +29°C° 0 mm 0 m/S 729 mmHg 55%
    20:00 +28°C° 0.1 mm 0 m/S 729 mmHg 58%
    21:00 +28°C° 0.1 mm 0 m/S 730 mmHg 60%
    22:00 +27°C° 0.1 mm 0 m/S 730 mmHg 63%
    23:00 +27°C° 0 mm 0 m/S 730 mmHg 65%

    21 November, Mittwoch

    Zeit Temperatur Niederschläge Wind Luftdruck Luftfeuchtigkeit
    00:00 +26°C° 0 mm 0 m/S 729 mmHg 67%
    01:00 +25°C° 0 mm 0 m/S 729 mmHg 69%
    02:00 +27°C° 0 mm 1 m/S 729 mmHg 70%
    03:00 +27°C° 0 mm 1 m/S 729 mmHg 72%
    04:00 +26°C° 0 mm 1 m/S 729 mmHg 73%
    05:00 +26°C° 0.6 mm 1 m/S 730 mmHg 79%
    06:00 +26°C° 0.6 mm 1 m/S 730 mmHg 85%
    07:00 +26°C° 0.6 mm 1 m/S 731 mmHg 91%
    08:00 +28°C° 0.1 mm 1 m/S 731 mmHg 81%
    09:00 +31°C° 0.1 mm 2 m/S 732 mmHg 70%
    10:00 +34°C° 0.1 mm 2 m/S 732 mmHg 60%
    11:00 +36°C° 0.1 mm 2 m/S 731 mmHg 53%
    12:00 +36°C° 0.1 mm 1 m/S 730 mmHg 47%
    13:00 +39°C° 0.1 mm 1 m/S 729 mmHg 40%
    14:00 +36°C° 0 mm 1 m/S 729 mmHg 45%
    15:00 +35°C° 0 mm 1 m/S 728 mmHg 49%
    16:00 +32°C° 0 mm 0 m/S 728 mmHg 53%
    17:00 +32°C° 0 mm 1 m/S 729 mmHg 60%
    18:00 +30°C° 0 mm 1 m/S 729 mmHg 66%
    19:00 +29°C° 0 mm 1 m/S 730 mmHg 73%
    20:00 +28°C° 0.3 mm 1 m/S 730 mmHg 78%
    21:00 +27°C° 0.3 mm 1 m/S 731 mmHg 84%
    22:00 +26°C° 0.3 mm 1 m/S 731 mmHg 90%
    23:00 +25°C° 0.7 mm 1 m/S 731 mmHg 92%

    22 November, Donnerstag

    Zeit Temperatur Niederschläge Wind Luftdruck Luftfeuchtigkeit
    00:00 +25°C° 0.7 mm 1 m/S 731 mmHg 95%
    01:00 +24°C° 0.7 mm 1 m/S 730 mmHg 98%
    02:00 +24°C° 0 mm 1 m/S 730 mmHg 98%
    03:00 +24°C° 0 mm 1 m/S 730 mmHg 97%
    04:00 +24°C° 0 mm 1 m/S 730 mmHg 97%
    05:00 +25°C° 0 mm 1 m/S 731 mmHg 95%
    06:00 +25°C° 0 mm 1 m/S 731 mmHg 94%
    07:00 +26°C° 0 mm 1 m/S 732 mmHg 92%
    08:00 +28°C° 0 mm 1 m/S 732 mmHg 80%
    09:00 +30°C° 0 mm 1 m/S 732 mmHg 68%
    10:00 +34°C° 0 mm 2 m/S 732 mmHg 56%
    11:00 +34°C° 0.1 mm 1 m/S 731 mmHg 53%
    12:00 +35°C° 0.1 mm 1 m/S 730 mmHg 50%
    13:00 +36°C° 0.1 mm 1 m/S 729 mmHg 47%
    14:00 +35°C° 0.1 mm 1 m/S 729 mmHg 50%
    15:00 +34°C° 0.1 mm 1 m/S 729 mmHg 54%
    16:00 +33°C° 0.1 mm 1 m/S 728 mmHg 57%
    17:00 +31°C° 0.2 mm 1 m/S 729 mmHg 64%
    18:00 +29°C° 0.2 mm 1 m/S 729 mmHg 72%
    19:00 +28°C° 0.2 mm 1 m/S 730 mmHg 79%
    20:00 +27°C° 0.2 mm 1 m/S 730 mmHg 82%
    21:00 +26°C° 0.2 mm 1 m/S 731 mmHg 85%
    22:00 +26°C° 0.2 mm 1 m/S 731 mmHg 87%
    23:00 +23°C° 0.1 mm 0 m/S 731 mmHg 89%

    23 November, Freitag

    Zeit Temperatur Niederschläge Wind Luftdruck Luftfeuchtigkeit
    00:00 +23°C° 0.1 mm 0 m/S 730 mmHg 90%
    01:00 +23°C° 0.1 mm 0 m/S 730 mmHg 91%
    02:00 +22°C° 0.3 mm 0 m/S 730 mmHg 93%
    03:00 +22°C° 0.3 mm 0 m/S 730 mmHg 95%
    04:00 +22°C° 0.3 mm 0 m/S 730 mmHg 97%
    05:00 +22°C° 0.2 mm 0 m/S 731 mmHg 95%
    06:00 +23°C° 0.2 mm 0 m/S 732 mmHg 93%
    07:00 +24°C° 0.2 mm 0 m/S 732 mmHg 91%
    08:00 +29°C° 0.1 mm 1 m/S 732 mmHg 78%
    09:00 +31°C° 0.1 mm 1 m/S 732 mmHg 66%
    10:00 +34°C° 0.1 mm 1 m/S 732 mmHg 53%
    11:00 +35°C° 0 mm 1 m/S 731 mmHg 47%
    12:00 +37°C° 0 mm 1 m/S 730 mmHg 42%
    13:00 +39°C° 0 mm 1 m/S 729 mmHg 37%
    14:00 +37°C° 0 mm 1 m/S 729 mmHg 41%
    15:00 +34°C° 0 mm 0 m/S 728 mmHg 45%
    16:00 +32°C° 0 mm 0 m/S 728 mmHg 49%
    17:00 +31°C° 0 mm 0 m/S 728 mmHg 55%
    18:00 +29°C° 0 mm 0 m/S 729 mmHg 61%
    19:00 +27°C° 0 mm 0 m/S 729 mmHg 67%
    20:00 +26°C° 0.4 mm 0 m/S 729 mmHg 74%
    21:00 +25°C° 0.4 mm 0 m/S 730 mmHg 82%
    22:00 +23°C° 0.4 mm 0 m/S 730 mmHg 90%
    23:00 +23°C° 0.1 mm 0 m/S 729 mmHg 91%
    Mehr zeigen